contact:dominique.lefevre@mio.osupytheas.fr, maurice.libes@osupytheas.fr, didier.mallarino@osupytheas.fr
Project:EMSO http://www.emso-fr.org/EMSO-France
Depth: 2436.0 m
Title:EMSO Ligure Ouest : Data MII capteur AQUADOPP
Date,Latitude,Longitude,X_East,Y_North,Z_Up,Amplitude_X,Amplitude_Y,Amplitude_Z,Batterie,SoundSpeed,Heading,Pitch,Roll,Pressure,TIS,Speed,Direction
, degrees North, degrees East, m.s-1, m.s-1,m.s-1, 1, 1, 1, Volt, m.s-1, degree, degree, degree, dbar, degree_C, m.s-1, degree
2021-08-07T00:04:03,42.805,6.029,0.036,-0.023,0.016,104.0,103.0,101.0,13.4,1505.2,327.6,-0.7,1.8,2470.533,13.28,0.042,122.6
2021-08-07T00:07:03,42.805,6.029,0.024,-0.036,0.008,104.0,102.0,101.0,13.4,1505.2,325.5,-0.8,1.8,2470.543,13.28,0.043,146.3
2021-08-07T00:10:03,42.805,6.029,0.039,-0.032,-0.013,103.0,101.0,100.0,13.4,1505.2,327.1,-0.8,1.8,2470.532,13.28,0.05,129.4
2021-08-07T00:13:03,42.805,6.029,0.036,-0.03,-0.007,101.0,102.0,101.0,13.3,1505.2,327.7,-0.8,1.8,2470.562,13.28,0.046,129.8
2021-08-07T00:16:03,42.805,6.029,0.018,-0.031,-0.008,102.0,103.0,101.0,13.3,1505.2,326.8,-0.7,1.8,2470.537,13.28,0.035,149.9
2021-08-07T00:19:03,42.805,6.029,0.036,-0.018,-0.051,102.0,104.0,99.0,13.3,1505.2,329.3,-0.7,1.8,2470.574,13.28,0.04,116.6
2021-08-07T00:22:03,42.805,6.029,0.033,-0.036,-0.023,102.0,103.0,101.0,13.4,1505.2,329.4,-0.8,1.8,2470.561,13.28,0.048,137.5
2021-08-07T00:25:03,42.805,6.029,0.0,-0.01,-0.002,100.0,102.0,101.0,13.4,1505.2,328.7,-0.7,1.8,2470.501,13.28,0.01,180.0
2021-08-07T00:28:03,42.805,6.029,0.03,-0.046,-0.03,102.0,101.0,101.0,13.4,1505.2,329.5,-0.8,1.8,2470.504,13.28,0.054,146.9
2021-08-07T00:31:03,42.805,6.029,0.03,-0.031,-0.014,102.0,102.0,100.0,13.4,1505.2,330.9,-0.8,1.8,2470.536,13.28,0.043,135.9
2021-08-07T00:34:03,42.805,6.029,0.035,-0.031,-0.024,101.0,101.0,101.0,13.3,1505.2,326.6,-0.7,1.8,2470.522,13.28,0.046,131.5
2021-08-07T00:37:03,42.805,6.029,0.022,-0.022,-0.023,102.0,102.0,101.0,13.4,1505.2,325.0,-0.8,1.8,2470.483,13.28,0.031,135.0
2021-08-07T00:40:03,42.805,6.029,0.027,-0.049,0.0,102.0,102.0,100.0,13.4,1505.2,325.8,-0.7,1.8,2470.517,13.28,0.055,151.1
2021-08-07T00:43:03,42.805,6.029,0.015,-0.027,-0.035,104.0,102.0,99.0,13.4,1505.2,327.3,-0.8,1.8,2470.512,13.28,0.03,150.9
2021-08-07T00:46:03,42.805,6.029,0.013,-0.035,-0.064,101.0,102.0,102.0,13.4,1505.2,329.4,-0.7,1.8,2470.49,13.28,0.037,159.6
2021-08-07T00:49:03,42.805,6.029,0.031,-0.027,-0.015,102.0,102.0,101.0,13.4,1505.2,327.5,-0.8,1.8,2470.506,13.28,0.041,131.1
2021-08-07T00:52:03,42.805,6.029,0.036,-0.009,-0.013,102.0,102.0,101.0,13.3,1505.2,327.1,-0.8,1.8,2470.483,13.28,0.037,104.0
2021-08-07T00:55:03,42.805,6.029,0.026,-0.031,-0.012,102.0,102.0,101.0,13.3,1505.2,327.4,-0.8,1.8,2470.51,13.28,0.04,140.0
2021-08-07T00:58:03,42.805,6.029,0.036,-0.027,-0.008,103.0,102.0,101.0,13.4,1505.2,328.8,-0.8,1.8,2470.469,13.28,0.045,126.9
2021-08-07T01:04:03,42.805,6.029,0.02,0.005,0.005,106.0,104.0,102.0,13.3,1505.2,327.7,-0.7,1.8,2470.513,13.28,0.02,76.0
2021-08-07T01:07:03,42.805,6.029,0.033,-0.011,0.005,103.0,104.0,101.0,13.3,1505.2,329.0,-0.8,1.8,2470.573,13.28,0.034,108.4
2021-08-07T01:10:03,42.805,6.029,0.024,-0.023,0.006,101.0,101.0,102.0,13.3,1505.2,329.8,-0.7,1.8,2470.506,13.28,0.033,133.8
2021-08-07T01:13:03,42.805,6.029,0.022,-0.023,-0.003,103.0,103.0,101.0,13.3,1505.2,330.4,-0.8,1.8,2470.519,13.28,0.031,136.3
2021-08-07T01:16:03,42.805,6.029,0.035,-0.048,0.004,102.0,102.0,102.0,13.4,1505.2,326.2,-0.7,1.8,2470.531,13.28,0.059,143.9
2021-08-07T01:19:03,42.805,6.029,0.034,-0.024,-0.026,103.0,102.0,100.0,13.4,1505.2,327.3,-0.8,1.8,2470.473,13.28,0.041,125.2
2021-08-07T01:22:03,42.805,6.029,0.054,-0.013,-0.025,102.0,103.0,101.0,13.4,1505.2,326.8,-0.7,1.8,2470.5,13.28,0.055,103.5
2021-08-07T01:25:03,42.805,6.029,0.024,-0.02,-0.024,102.0,103.0,102.0,13.4,1505.2,330.5,-0.8,1.8,2470.505,13.28,0.031,129.8
2021-08-07T01:28:03,42.805,6.029,0.024,-0.032,-0.013,102.0,103.0,102.0,13.3,1505.2,327.0,-0.7,1.8,2470.505,13.28,0.04,143.1
2021-08-07T01:31:03,42.805,6.029,0.025,-0.019,-0.003,102.0,104.0,101.0,13.4,1505.2,329.3,-0.8,1.8,2470.494,13.28,0.031,127.2
2021-08-07T01:34:03,42.805,6.029,0.035,-0.03,-0.004,104.0,103.0,101.0,13.4,1505.2,325.7,-0.7,1.8,2470.496,13.28,0.046,130.6
2021-08-07T01:37:03,42.805,6.029,0.038,-0.041,-0.009,103.0,102.0,101.0,13.3,1505.2,326.9,-0.7,1.8,2470.494,13.28,0.055,137.2
2021-08-07T01:40:03,42.805,6.029,0.023,-0.004,0.009,104.0,101.0,100.0,13.4,1505.2,328.9,-0.8,1.8,2470.5,13.28,0.023,99.9
2021-08-07T01:43:03,42.805,6.029,0.002,-0.021,0.018,102.0,104.0,100.0,13.4,1505.2,328.4,-0.8,1.9,2470.524,13.28,0.021,174.6
2021-08-07T01:46:03,42.805,6.029,0.046,-0.01,-0.014,103.0,103.0,101.0,13.3,1505.2,327.8,-0.8,1.8,2470.499,13.28,0.047,102.3
2021-08-07T01:49:03,42.805,6.029,0.037,-0.02,0.0,103.0,101.0,102.0,13.4,1505.2,327.2,-0.7,1.8,2470.508,13.28,0.042,118.4
2021-08-07T01:52:03,42.805,6.029,0.03,-0.035,-0.029,104.0,102.0,102.0,13.4,1505.2,330.6,-0.7,1.8,2470.464,13.28,0.046,139.4
2021-08-07T01:55:03,42.805,6.029,0.04,-0.04,-0.019,102.0,103.0,101.0,13.4,1505.2,328.8,-0.8,1.9,2470.513,13.28,0.056,135.0
2021-08-07T01:58:03,42.805,6.029,0.031,-0.043,-0.021,104.0,103.0,101.0,13.3,1505.2,329.8,-0.8,1.8,2470.498,13.28,0.053,144.2
2021-08-07T02:04:03,42.805,6.029,0.03,-0.025,-0.011,102.0,103.0,102.0,13.4,1505.2,325.1,-0.8,1.8,2470.528,13.28,0.039,129.8
2021-08-07T02:07:03,42.805,6.029,0.034,-0.027,-0.009,103.0,103.0,100.0,13.4,1505.2,327.2,-0.7,1.8,2470.537,13.28,0.043,128.5
2021-08-07T02:10:03,42.805,6.029,0.022,-0.021,0.004,103.0,102.0,102.0,13.4,1505.2,330.0,-0.8,1.8,2470.494,13.28,0.03,133.7
2021-08-07T02:13:03,42.805,6.029,0.039,-0.014,0.003,104.0,102.0,101.0,13.4,1505.2,329.5,-0.8,1.8,2470.516,13.28,0.041,109.7
2021-08-07T02:16:03,42.805,6.029,0.048,-0.033,0.004,102.0,101.0,102.0,13.3,1505.2,329.9,-0.8,1.8,2470.527,13.28,0.058,124.5
2021-08-07T02:19:03,42.805,6.029,0.027,-0.012,0.012,103.0,104.0,100.0,13.4,1505.2,327.2,-0.8,1.8,2470.532,13.28,0.029,114.0
2021-08-07T02:22:03,42.805,6.029,0.034,-0.029,-0.008,102.0,103.0,102.0,13.4,1505.2,325.0,-0.7,1.8,2470.521,13.28,0.044,130.5
2021-08-07T02:25:03,42.805,6.029,0.04,-0.031,-0.018,103.0,103.0,101.0,13.3,1505.2,328.4,-0.8,1.8,2470.518,13.28,0.05,127.8
2021-08-07T02:28:03,42.805,6.029,-0.009,-0.016,-0.012,103.0,103.0,101.0,13.3,1505.2,327.6,-0.7,1.8,2470.533,13.28,0.018,209.4
2021-08-07T02:31:03,42.805,6.029,0.005,-0.021,-0.03,104.0,103.0,100.0,13.4,1505.2,329.3,-0.7,1.8,2470.533,13.28,0.021,166.6
2021-08-07T02:34:03,42.805,6.029,0.008,-0.02,-0.003,103.0,105.0,100.0,13.4,1505.2,327.4,-0.8,1.9,2470.533,13.28,0.021,158.2
2021-08-07T02:37:03,42.805,6.029,0.009,-0.042,-0.02,104.0,101.0,101.0,13.4,1505.2,329.7,-0.8,1.8,2470.477,13.28,0.042,167.9
2021-08-07T02:40:03,42.805,6.029,0.03,-0.027,-0.027,103.0,102.0,101.0,13.3,1505.2,326.6,-0.7,1.8,2470.484,13.28,0.04,132.0
2021-08-07T02:43:03,42.805,6.029,0.036,-0.031,-0.001,103.0,104.0,101.0,13.4,1505.2,327.7,-0.8,1.8,2470.498,13.28,0.047,130.7
2021-08-07T02:46:03,42.805,6.029,0.029,-0.013,-0.018,102.0,105.0,101.0,13.4,1505.2,329.8,-0.7,1.8,2470.523,13.28,0.031,114.1
2021-08-07T02:49:03,42.805,6.029,0.035,-0.028,-0.008,103.0,101.0,101.0,13.3,1505.2,326.8,-0.7,1.8,2470.496,13.28,0.044,128.7
2021-08-07T02:52:03,42.805,6.029,0.037,-0.045,-0.009,102.0,102.0,101.0,13.3,1505.2,330.3,-0.8,1.9,2470.511,13.28,0.058,140.6
2021-08-07T02:55:03,42.805,6.029,0.027,-0.026,-0.033,103.0,102.0,101.0,13.4,1505.2,327.4,-0.7,1.9,2470.538,13.28,0.037,133.9
2021-08-07T02:58:03,42.805,6.029,0.041,-0.027,-0.001,104.0,102.0,101.0,13.3,1505.2,326.6,-0.8,1.8,2470.506,13.28,0.049,123.4
2021-08-07T03:04:03,42.805,6.029,0.026,-0.008,-0.003,103.0,102.0,101.0,13.4,1505.2,326.2,-0.8,1.8,2470.565,13.28,0.027,107.1
2021-08-07T03:07:03,42.805,6.029,0.01,-0.01,-0.001,103.0,102.0,100.0,13.4,1505.2,325.4,-0.8,1.8,2470.585,13.28,0.014,135.0
2021-08-07T03:10:03,42.805,6.029,0.032,-0.025,0.009,102.0,103.0,102.0,13.4,1505.2,326.2,-0.7,1.8,2470.564,13.28,0.04,128.0
2021-08-07T03:13:03,42.805,6.029,0.049,-0.023,-0.015,102.0,104.0,101.0,13.4,1505.2,327.5,-0.8,1.8,2470.529,13.28,0.054,115.1
2021-08-07T03:16:03,42.805,6.029,0.034,-0.035,-0.009,102.0,102.0,102.0,13.3,1505.2,328.4,-0.8,1.8,2470.571,13.28,0.048,135.8
2021-08-07T03:19:03,42.805,6.029,0.049,-0.022,0.0,103.0,103.0,100.0,13.3,1505.2,330.0,-0.7,1.8,2470.564,13.28,0.053,114.2
2021-08-07T03:22:03,42.805,6.029,0.031,-0.028,-0.021,103.0,103.0,101.0,13.4,1505.2,329.1,-0.7,1.8,2470.532,13.28,0.041,132.1
2021-08-07T03:25:03,42.805,6.029,0.025,-0.031,-0.033,104.0,103.0,101.0,13.4,1505.2,330.0,-0.8,1.8,2470.492,13.28,0.039,141.1
2021-08-07T03:28:03,42.805,6.029,0.05,-0.01,-0.007,103.0,102.0,101.0,13.4,1505.2,326.3,-0.8,1.8,2470.559,13.28,0.05,101.3
2021-08-07T03:31:03,42.805,6.029,0.007,-0.04,0.015,103.0,104.0,101.0,13.4,1505.2,327.2,-0.7,1.8,2470.569,13.28,0.04,170.1
2021-08-07T03:34:03,42.805,6.029,0.021,-0.016,-0.004,104.0,103.0,100.0,13.4,1505.2,329.3,-0.8,1.8,2470.532,13.28,0.026,127.3
2021-08-07T03:37:03,42.805,6.029,0.02,-0.001,-0.009,103.0,102.0,100.0,13.4,1505.2,326.9,-0.7,1.8,2470.563,13.28,0.02,92.9
2021-08-07T03:40:03,42.805,6.029,0.026,-0.025,-0.024,101.0,102.0,102.0,13.3,1505.2,329.4,-0.7,1.8,2470.556,13.28,0.036,133.9
2021-08-07T03:43:03,42.805,6.029,0.054,-0.013,-0.02,103.0,103.0,100.0,13.4,1505.2,325.3,-0.8,1.8,2470.518,13.28,0.055,103.5
2021-08-07T03:46:03,42.805,6.029,0.028,-0.024,-0.005,102.0,103.0,101.0,13.3,1505.2,328.4,-0.8,1.8,2470.572,13.28,0.036,130.6
2021-08-07T03:49:03,42.805,6.029,0.034,-0.02,-0.031,101.0,102.0,101.0,13.4,1505.2,329.6,-0.8,1.8,2470.525,13.28,0.039,120.5
2021-08-07T03:52:03,42.805,6.029,0.013,-0.013,0.001,103.0,101.0,101.0,13.4,1505.2,328.7,-0.7,1.8,2470.538,13.28,0.018,135.0
2021-08-07T03:55:03,42.805,6.029,0.0,-0.049,-0.026,101.0,102.0,101.0,13.4,1505.2,326.4,-0.7,1.8,2470.524,13.28,0.049,180.0
2021-08-07T03:58:03,42.805,6.029,0.033,-0.03,-0.02,102.0,102.0,100.0,13.3,1505.2,329.0,-0.8,1.9,2470.541,13.28,0.044,132.3
2021-08-07T04:04:03,42.805,6.029,0.031,-0.023,-0.006,102.0,102.0,100.0,13.4,1505.2,329.3,-0.8,1.8,2470.572,13.28,0.038,126.6
2021-08-07T04:07:03,42.805,6.029,0.025,-0.012,-0.014,103.0,102.0,102.0,13.4,1505.2,329.6,-0.8,1.8,2470.566,13.28,0.027,115.6
2021-08-07T04:10:03,42.805,6.029,0.01,-0.023,-0.029,102.0,103.0,101.0,13.4,1505.2,326.7,-0.8,1.8,2470.586,13.28,0.025,156.5
2021-08-07T04:13:03,42.805,6.029,0.03,-0.028,-0.011,102.0,101.0,101.0,13.4,1505.2,327.5,-0.8,1.8,2470.599,13.28,0.041,133.0
2021-08-07T04:16:03,42.805,6.029,0.007,-0.011,-0.006,102.0,104.0,99.0,13.3,1505.2,327.0,-0.8,1.8,2470.593,13.28,0.013,147.5
2021-08-07T04:19:03,42.805,6.029,0.016,-0.025,-0.042,102.0,102.0,102.0,13.3,1505.2,326.5,-0.8,1.8,2470.567,13.28,0.029,147.4
2021-08-07T04:22:03,42.805,6.029,0.011,-0.007,-0.004,102.0,103.0,100.0,13.3,1505.2,328.9,-0.8,1.8,2470.58,13.28,0.013,122.5
2021-08-07T04:25:03,42.805,6.029,0.014,-0.026,0.003,101.0,101.0,102.0,13.3,1505.2,325.9,-0.7,1.9,2470.54,13.28,0.029,151.7
2021-08-07T04:28:03,42.805,6.029,0.041,-0.03,-0.011,102.0,103.0,99.0,13.4,1505.2,329.0,-0.8,1.8,2470.551,13.28,0.05,126.2
2021-08-07T04:31:03,42.805,6.029,0.003,-0.004,-0.03,101.0,102.0,101.0,13.3,1505.2,327.1,-0.7,1.8,2470.576,13.28,0.005,143.1
2021-08-07T04:34:03,42.805,6.029,0.01,-0.016,-0.03,104.0,101.0,101.0,13.3,1505.2,328.0,-0.7,1.8,2470.552,13.28,0.018,148.0
2021-08-07T04:37:03,42.805,6.029,0.02,-0.027,-0.063,103.0,101.0,101.0,13.3,1505.2,328.2,-0.8,1.9,2470.564,13.28,0.033,143.5
2021-08-07T04:40:03,42.805,6.029,0.031,-0.032,-0.005,101.0,102.0,100.0,13.4,1505.2,330.7,-0.8,1.8,2470.58,13.28,0.044,135.9
2021-08-07T04:43:03,42.805,6.029,0.028,-0.019,0.003,102.0,102.0,100.0,13.3,1505.2,326.4,-0.8,1.8,2470.558,13.28,0.033,124.2
2021-08-07T04:46:03,42.805,6.029,0.034,-0.004,-0.008,102.0,103.0,99.0,13.4,1505.2,324.8,-0.8,1.8,2470.598,13.28,0.034,96.7
2021-08-07T04:49:03,42.805,6.029,0.039,-0.006,0.004,102.0,100.0,102.0,13.4,1505.2,328.7,-0.7,1.8,2470.578,13.28,0.039,98.7
2021-08-07T04:52:03,42.805,6.029,0.021,-0.021,-0.016,103.0,101.0,101.0,13.3,1505.2,330.2,-0.8,1.8,2470.57,13.28,0.029,135.0
2021-08-07T04:55:03,42.805,6.029,0.007,-0.024,-0.029,102.0,103.0,102.0,13.4,1505.2,327.6,-0.8,1.8,2470.584,13.28,0.025,163.7
2021-08-07T04:58:03,42.805,6.029,0.031,-0.02,-0.03,102.0,103.0,100.0,13.3,1505.2,325.1,-0.8,1.8,2470.614,13.28,0.036,122.8
2021-08-07T05:04:03,42.805,6.029,0.025,-0.022,-0.001,102.0,102.0,101.0,13.4,1505.2,330.7,-0.8,1.8,2470.612,13.28,0.033,131.3
2021-08-07T05:07:03,42.805,6.029,0.024,-0.025,0.0,103.0,104.0,102.0,13.4,1505.2,326.5,-0.8,1.8,2470.626,13.28,0.034,136.2
2021-08-07T05:10:03,42.805,6.029,0.024,-0.012,0.014,103.0,104.0,101.0,13.4,1505.2,328.5,-0.8,1.8,2470.583,13.28,0.026,116.6
2021-08-07T05:13:03,42.805,6.029,0.03,-0.038,-0.021,102.0,103.0,101.0,13.3,1505.2,327.7,-0.7,1.8,2470.616,13.28,0.048,141.7
2021-08-07T05:16:03,42.805,6.029,0.021,-0.038,-0.021,103.0,103.0,101.0,13.3,1505.2,327.8,-0.7,1.8,2470.614,13.28,0.043,151.1
2021-08-07T05:19:03,42.805,6.029,0.023,-0.041,-0.007,103.0,103.0,101.0,13.4,1505.2,328.0,-0.8,1.9,2470.61,13.28,0.047,150.7
2021-08-07T05:22:03,42.805,6.029,0.029,-0.014,-0.019,102.0,102.0,101.0,13.4,1505.2,326.7,-0.7,1.8,2470.594,13.28,0.032,115.8
2021-08-07T05:25:03,42.805,6.029,0.051,-0.022,-0.013,102.0,102.0,101.0,13.4,1505.2,327.2,-0.7,1.8,2470.591,13.28,0.055,113.3
2021-08-07T05:28:03,42.805,6.029,0.031,-0.049,-0.006,102.0,102.0,101.0,13.3,1505.2,328.9,-0.7,1.8,2470.64,13.28,0.057,147.7
2021-08-07T05:31:03,42.805,6.029,0.037,-0.033,0.005,103.0,102.0,101.0,13.4,1505.2,328.7,-0.7,1.8,2470.595,13.28,0.049,131.7
2021-08-07T05:34:03,42.805,6.029,0.043,-0.01,0.016,104.0,102.0,101.0,13.3,1505.2,328.0,-0.7,1.8,2470.622,13.28,0.044,103.1
2021-08-07T05:37:03,42.805,6.029,0.019,-0.045,-0.013,102.0,103.0,101.0,13.3,1505.2,329.2,-0.8,1.8,2470.61,13.28,0.048,157.1
2021-08-07T05:40:03,42.805,6.029,0.005,-0.026,-0.039,103.0,103.0,101.0,13.4,1505.2,328.7,-0.8,1.8,2470.588,13.28,0.026,169.1
2021-08-07T05:43:03,42.805,6.029,0.009,-0.028,-0.032,103.0,103.0,101.0,13.3,1505.2,328.3,-0.8,1.9,2470.6,13.28,0.029,162.2
2021-08-07T05:46:03,42.805,6.029,0.032,-0.03,0.023,103.0,102.0,101.0,13.3,1505.2,327.6,-0.8,1.8,2470.647,13.28,0.043,133.1
2021-08-07T05:49:03,42.805,6.029,0.021,-0.03,-0.022,103.0,102.0,101.0,13.3,1505.2,325.9,-0.7,1.8,2470.606,13.28,0.036,145.0
2021-08-07T05:52:03,42.805,6.029,0.029,-0.032,-0.008,102.0,102.0,100.0,13.4,1505.2,326.5,-0.7,1.8,2470.605,13.28,0.043,137.8
2021-08-07T05:55:03,42.805,6.029,0.035,-0.016,0.005,102.0,102.0,102.0,13.4,1505.2,327.9,-0.8,1.8,2470.589,13.28,0.038,114.6
2021-08-07T05:58:03,42.805,6.029,0.023,-0.023,-0.02,103.0,102.0,101.0,13.4,1505.2,325.0,-0.7,1.8,2470.587,13.28,0.032,135.0
2021-08-07T06:04:03,42.805,6.029,0.04,-0.03,-0.001,102.0,102.0,101.0,13.4,1505.2,326.5,-0.8,1.8,2470.614,13.28,0.05,126.9
2021-08-07T06:07:03,42.805,6.029,0.043,-0.01,0.003,103.0,103.0,99.0,13.4,1505.2,327.8,-0.8,1.8,2470.651,13.28,0.044,103.1
2021-08-07T06:10:03,42.805,6.029,0.026,-0.021,-0.029,101.0,103.0,101.0,13.4,1505.2,328.7,-0.7,1.8,2470.66,13.28,0.033,128.9
2021-08-07T06:13:03,42.805,6.029,0.029,-0.036,-0.016,103.0,102.0,101.0,13.4,1505.2,326.8,-0.7,1.8,2470.641,13.28,0.046,141.1
2021-08-07T06:16:03,42.805,6.029,0.026,-0.012,0.012,103.0,102.0,100.0,13.4,1505.2,327.0,-0.8,1.8,2470.615,13.28,0.028,114.8
2021-08-07T06:19:03,42.805,6.029,0.045,-0.016,-0.011,102.0,102.0,101.0,13.4,1505.2,326.4,-0.8,1.8,2470.6,13.28,0.047,109.6
2021-08-07T06:22:03,42.805,6.029,0.034,-0.023,0.006,103.0,102.0,100.0,13.4,1505.2,329.1,-0.7,1.8,2470.581,13.28,0.041,124.1
2021-08-07T06:25:03,42.805,6.029,0.045,-0.035,-0.012,104.0,103.0,101.0,13.4,1505.2,326.7,-0.8,1.8,2470.579,13.28,0.057,127.9
2021-08-07T06:28:03,42.805,6.029,0.049,-0.027,-0.016,103.0,101.0,100.0,13.3,1505.2,329.6,-0.7,1.9,2470.596,13.28,0.055,118.9
2021-08-07T06:31:03,42.805,6.029,0.04,-0.028,-0.03,102.0,103.0,101.0,13.4,1505.2,329.5,-0.7,1.8,2470.599,13.28,0.048,125.0
2021-08-07T06:34:03,42.805,6.029,0.014,-0.026,-0.012,102.0,102.0,101.0,13.3,1505.2,327.1,-0.8,1.8,2470.607,13.28,0.029,151.7
2021-08-07T06:37:03,42.805,6.029,0.031,-0.035,-0.008,103.0,101.0,101.0,13.4,1505.2,328.4,-0.7,1.8,2470.608,13.28,0.046,138.5
2021-08-07T06:40:03,42.805,6.029,0.042,-0.018,-0.013,102.0,102.0,100.0,13.3,1505.2,330.3,-0.8,1.8,2470.564,13.28,0.045,113.2
2021-08-07T06:43:03,42.805,6.029,0.04,-0.02,-0.022,104.0,102.0,100.0,13.3,1505.2,330.1,-0.8,1.8,2470.641,13.28,0.044,116.6
2021-08-07T06:46:03,42.805,6.029,0.013,-0.035,-0.04,103.0,102.0,101.0,13.3,1505.2,326.9,-0.7,1.8,2470.619,13.28,0.037,159.6
2021-08-07T06:49:03,42.805,6.029,0.041,-0.009,-0.015,104.0,101.0,100.0,13.4,1505.2,325.4,-0.8,1.8,2470.559,13.28,0.041,102.4
2021-08-07T06:52:03,42.805,6.029,0.025,-0.039,-0.039,102.0,102.0,101.0,13.4,1505.2,326.6,-0.7,1.8,2470.6,13.28,0.046,147.3
2021-08-07T06:55:03,42.805,6.029,0.032,-0.032,-0.006,103.0,102.0,101.0,13.4,1505.2,328.7,-0.8,1.8,2470.622,13.28,0.045,135.0
2021-08-07T06:58:03,42.805,6.029,0.033,-0.026,0.006,103.0,104.0,100.0,13.3,1505.2,325.4,-0.7,1.8,2470.586,13.28,0.042,128.2
2021-08-07T07:04:03,42.805,6.029,0.04,-0.045,-0.044,102.0,101.0,101.0,13.3,1505.2,326.3,-0.8,1.8,2470.642,13.28,0.06,138.4
2021-08-07T07:07:03,42.805,6.029,0.031,-0.035,-0.022,103.0,101.0,101.0,13.3,1505.2,326.1,-0.8,1.8,2470.636,13.28,0.046,138.5
2021-08-07T07:10:03,42.805,6.029,0.032,-0.031,-0.015,104.0,102.0,101.0,13.4,1505.2,329.1,-0.8,1.8,2470.586,13.28,0.044,134.1
2021-08-07T07:13:03,42.805,6.029,0.024,-0.037,-0.005,102.0,102.0,101.0,13.4,1505.2,327.2,-0.8,1.8,2470.627,13.28,0.044,147.0
2021-08-07T07:16:03,42.805,6.029,0.037,-0.022,0.03,102.0,102.0,100.0,13.3,1505.2,330.7,-0.7,1.8,2470.565,13.28,0.043,120.7
2021-08-07T07:19:03,42.805,6.029,0.031,-0.036,-0.025,102.0,102.0,100.0,13.4,1505.2,328.8,-0.8,1.8,2470.592,13.28,0.047,139.3
2021-08-07T07:22:03,42.805,6.029,0.061,-0.026,0.009,102.0,101.0,101.0,13.3,1505.2,327.2,-0.7,1.8,2470.59,13.28,0.066,113.1
2021-08-07T07:25:03,42.805,6.029,0.029,-0.018,0.015,102.0,102.0,101.0,13.4,1505.2,329.1,-0.8,1.8,2470.609,13.28,0.034,121.8
2021-08-07T07:28:03,42.805,6.029,0.022,-0.013,-0.003,102.0,103.0,101.0,13.4,1505.2,328.1,-0.8,1.8,2470.652,13.28,0.025,120.6
2021-08-07T07:31:03,42.805,6.029,0.048,-0.041,-0.015,103.0,101.0,101.0,13.3,1505.2,327.3,-0.8,1.9,2470.59,13.28,0.063,130.5
2021-08-07T07:34:03,42.805,6.029,0.032,-0.011,0.011,104.0,103.0,100.0,13.3,1505.2,327.5,-0.8,1.8,2470.608,13.28,0.033,109.0
2021-08-07T07:37:03,42.805,6.029,0.038,-0.035,-0.013,103.0,103.0,101.0,13.4,1505.2,327.7,-0.8,1.8,2470.558,13.28,0.051,132.6
2021-08-07T07:40:03,42.805,6.029,0.019,-0.002,0.002,102.0,103.0,101.0,13.3,1505.2,328.8,-0.8,1.8,2470.554,13.28,0.019,96.0
2021-08-07T07:43:03,42.805,6.029,0.026,-0.034,0.005,103.0,102.0,101.0,13.4,1505.2,328.3,-0.8,1.8,2470.597,13.28,0.042,142.6
2021-08-07T07:46:03,42.805,6.029,0.027,-0.015,-0.019,104.0,102.0,101.0,13.4,1505.2,326.3,-0.7,1.8,2470.59,13.28,0.03,119.1
2021-08-07T07:49:03,42.805,6.029,0.048,-0.014,0.008,102.0,102.0,101.0,13.4,1505.2,327.7,-0.7,1.8,2470.597,13.28,0.05,106.3
2021-08-07T07:52:03,42.805,6.029,0.05,-0.029,-0.004,102.0,103.0,101.0,13.4,1505.2,326.1,-0.8,1.8,2470.547,13.28,0.057,120.1
2021-08-07T07:55:03,42.805,6.029,0.04,-0.046,-0.004,102.0,103.0,101.0,13.4,1505.2,330.4,-0.7,1.8,2470.577,13.28,0.06,139.0
2021-08-07T07:58:03,42.805,6.029,0.034,-0.048,0.008,103.0,102.0,101.0,13.3,1505.2,329.4,-0.7,1.9,2470.554,13.28,0.058,144.7
2021-08-07T08:04:03,42.805,6.029,0.049,-0.041,-0.018,102.0,102.0,101.0,13.3,1505.2,328.4,-0.8,1.8,2470.601,13.28,0.063,129.9
2021-08-07T08:07:03,42.805,6.029,0.066,-0.016,0.007,103.0,102.0,101.0,13.4,1505.2,326.4,-0.8,1.8,2470.612,13.28,0.067,103.6
2021-08-07T08:10:03,42.805,6.029,0.03,-0.036,0.0,102.0,103.0,100.0,13.4,1505.2,328.2,-0.7,1.9,2470.607,13.28,0.046,140.2
2021-08-07T08:13:03,42.805,6.029,0.044,-0.041,-0.038,102.0,103.0,101.0,13.3,1505.2,328.0,-0.8,1.8,2470.581,13.28,0.06,133.0
2021-08-07T08:16:03,42.805,6.029,0.049,-0.042,0.006,102.0,102.0,101.0,13.4,1505.2,325.9,-0.8,1.8,2470.563,13.28,0.064,130.6
2021-08-07T08:19:03,42.805,6.029,0.041,-0.043,0.011,103.0,103.0,101.0,13.4,1505.2,328.6,-0.8,1.8,2470.604,13.28,0.059,136.4
2021-08-07T08:22:03,42.805,6.029,0.044,-0.016,0.025,103.0,101.0,102.0,13.3,1505.2,327.9,-0.8,1.9,2470.54,13.28,0.046,110.0
2021-08-07T08:25:03,42.805,6.029,0.03,-0.034,-0.027,102.0,103.0,100.0,13.3,1505.2,329.0,-0.7,1.8,2470.561,13.28,0.045,138.6
2021-08-07T08:28:03,42.805,6.029,0.034,-0.025,0.005,102.0,102.0,101.0,13.4,1505.2,325.2,-0.7,1.8,2470.535,13.28,0.042,126.3
2021-08-07T08:31:03,42.805,6.029,0.053,-0.028,0.005,102.0,103.0,101.0,13.4,1505.2,326.5,-0.8,1.8,2470.57,13.28,0.059,117.9
2021-08-07T08:34:03,42.805,6.029,0.039,-0.03,0.023,102.0,102.0,101.0,13.4,1505.2,329.8,-0.7,1.8,2470.536,13.28,0.049,127.6
2021-08-07T08:37:03,42.805,6.029,0.043,-0.039,-0.009,102.0,101.0,101.0,13.4,1505.2,325.1,-0.8,1.8,2470.576,13.28,0.058,132.2
2021-08-07T08:40:03,42.805,6.029,0.032,-0.045,0.005,102.0,103.0,100.0,13.4,1505.2,328.9,-0.8,1.8,2470.564,13.28,0.055,144.6
2021-08-07T08:43:03,42.805,6.029,0.009,-0.051,-0.028,103.0,102.0,101.0,13.4,1505.2,329.1,-0.7,1.8,2470.536,13.28,0.051,170.0
2021-08-07T08:46:03,42.805,6.029,0.057,-0.035,0.014,102.0,103.0,101.0,13.3,1505.2,329.9,-0.7,1.8,2470.579,13.28,0.066,121.6
2021-08-07T08:49:03,42.805,6.029,0.029,-0.013,-0.014,102.0,102.0,101.0,13.4,1505.2,327.7,-0.7,1.8,2470.556,13.28,0.031,114.1
2021-08-07T08:52:03,42.805,6.029,0.017,-0.015,-0.007,102.0,102.0,101.0,13.4,1505.2,328.9,-0.8,1.8,2470.552,13.28,0.022,131.4
2021-08-07T08:55:03,42.805,6.029,0.046,-0.021,-0.023,103.0,102.0,100.0,13.3,1505.2,327.4,-0.7,1.8,2470.561,13.28,0.05,114.5
2021-08-07T08:58:03,42.805,6.029,0.022,-0.039,-0.013,103.0,102.0,101.0,13.3,1505.2,324.9,-0.7,1.8,2470.541,13.28,0.044,150.6
2021-08-07T09:04:03,42.805,6.029,0.011,-0.045,-0.011,103.0,102.0,101.0,13.4,1505.2,328.5,-0.8,1.8,2470.58,13.28,0.046,166.3
2021-08-07T09:07:03,42.805,6.029,0.03,-0.046,-0.022,102.0,103.0,100.0,13.3,1505.2,330.7,-0.8,1.8,2470.598,13.28,0.054,146.9
2021-08-07T09:10:03,42.805,6.029,0.024,-0.025,0.038,102.0,102.0,100.0,13.4,1505.2,328.5,-0.8,1.8,2470.581,13.28,0.034,136.2
2021-08-07T09:13:03,42.805,6.029,0.044,-0.04,-0.012,103.0,103.0,101.0,13.3,1505.2,326.4,-0.7,1.8,2470.589,13.28,0.059,132.3
2021-08-07T09:16:03,42.805,6.029,0.033,-0.021,-0.017,103.0,102.0,101.0,13.4,1505.2,328.3,-0.8,1.8,2470.532,13.28,0.039,122.5
2021-08-07T09:19:03,42.805,6.029,0.039,-0.036,-0.02,102.0,102.0,100.0,13.3,1505.2,328.9,-0.8,1.8,2470.542,13.28,0.053,132.7
2021-08-07T09:22:03,42.805,6.029,0.036,-0.033,-0.015,103.0,102.0,101.0,13.3,1505.2,328.3,-0.8,1.8,2470.544,13.28,0.048,132.5
2021-08-07T09:25:03,42.805,6.029,0.038,-0.036,-0.003,103.0,103.0,101.0,13.3,1505.2,327.4,-0.8,1.8,2470.544,13.28,0.052,133.5
2021-08-07T09:28:03,42.805,6.029,0.042,-0.033,0.002,102.0,102.0,101.0,13.4,1505.2,325.2,-0.7,1.9,2470.567,13.28,0.053,128.2
2021-08-07T09:31:03,42.805,6.029,0.029,-0.044,-0.026,102.0,102.0,101.0,13.4,1505.2,330.7,-0.8,1.8,2470.532,13.28,0.052,146.6
2021-08-07T09:34:03,42.805,6.029,0.057,-0.022,-0.007,102.0,102.0,101.0,13.4,1505.2,326.8,-0.8,1.8,2470.557,13.28,0.061,111.1
2021-08-07T09:37:03,42.805,6.029,0.038,-0.049,-0.009,102.0,102.0,101.0,13.4,1505.2,325.8,-0.7,1.9,2470.521,13.28,0.062,142.2
2021-08-07T09:40:03,42.805,6.029,0.026,-0.02,-0.014,102.0,103.0,101.0,13.4,1505.2,326.4,-0.8,1.8,2470.538,13.28,0.032,127.6
2021-08-07T09:43:03,42.805,6.029,0.035,-0.031,0.015,103.0,102.0,101.0,13.4,1505.2,330.3,-0.7,1.8,2470.536,13.28,0.046,131.5
2021-08-07T09:46:03,42.805,6.029,0.022,-0.054,-0.011,102.0,103.0,102.0,13.3,1505.2,327.0,-0.8,1.9,2470.546,13.28,0.058,157.8
2021-08-07T09:49:03,42.805,6.029,0.047,-0.051,-0.039,104.0,101.0,102.0,13.4,1505.2,327.2,-0.7,1.8,2470.519,13.28,0.069,137.3
2021-08-07T09:52:03,42.805,6.029,0.051,-0.028,-0.012,102.0,102.0,101.0,13.4,1505.2,328.8,-0.7,1.8,2470.565,13.28,0.058,118.8
2021-08-07T09:55:03,42.805,6.029,0.037,-0.048,-0.021,101.0,103.0,102.0,13.4,1505.2,325.2,-0.8,1.8,2470.527,13.28,0.06,142.4